GEESAT 6-05

Satellite information

Favourite Embed

Satellite Type and Status

PAYLOADIN ORBIT

Key statistics

Satellite GEESAT 6-05 at a glance.

Uptime

26

Days in orbit

Revolutions

≈ 14.9

Per day

Orbit

LEO

Low Earth Orbit

Inclination

50.0

Latest

Satellite identification and parameters

Extended collection of information and parameters for GEESAT 6-05.

Object identification

Identified? True

Debris? False

Object name: GEESAT 6-05

International designator: 2025-214F

Object number (NORAD): 65717

Object ID (CCSDS): 65717

Country: PEOPLES REPUBLIC OF CHINA (PRC)

Current information (Y/N): Y

Orbital parameters

Period: 96.866 minutes

Inclination: 49.9824 deg

SMA: 6986.723 km

Apoapsis: 618.695 km

Periapsis: 598.48 km

RAAN: 342.9217 deg

Eccentricy: 0.00144668

Argument of periapsis: 28.7832 deg

Mean anomaly: 331.3902 deg

Mean motion: 14.86594425 rev/day

Mean motion (dot): 0.00004894 rev/day2

B* drag term: 0.00057082554 1/REarth

Two-line elements (TLE)

Creation date: Oct. 20, 2025, 2:10 a.m.

Reference frame: TEME

Reference center: EARTH

Epoch: Oct. 19, 2025, 10:37 p.m. UTC

TLE line 0: 0 GEESAT 6-05

TLE line 1: 1 65717U 25214F 25292.94266018 .00004894 00000-0 57083-3 0 9997

TLE line 2: 2 65717 49.9824 342.9217 0014467 28.7832 331.3902 14.86594425 3826

Live tracking on map

Real-time ground track for satellite GEESAT 6-05.

In-orbit conjunctions

There are no conjunctions computed for GEESAT 6-05, at the moment. Check back to stay up to date, as we update our databases every day.

Go to all conjunctions

Associated space launch

12 LEO communications satellites for Chinese car manufacturer Geely Automotive for testing autonomous driving/inter-vehicle communication services. They also carry payloads for ocean observation.

GEESAT 6-05 was lifted into orbit during the mission ‘Smart Dragon 3 | Geely Constellation Group 06’, on board a Smart Dragon 3 space rocket.

The launch took place on Sept. 24, 2025, 7:56 a.m. from Oriental Spaceport mobile launch ship.

For more information about the launch, click the button.

Launch to space Smart Dragon 3 | Geely Constellation Group 06
Smart Dragon 3 | Geely Constellation Group 06

Agency: N/A

Status: Launch Successful

Launch date: Sept. 24, 2025, 7:56 a.m. UTC

Rocket: Smart Dragon 3

Launch pad: Oriental Spaceport mobile launch ship

Location: Sea Launch

...

Latest news about this satellite

News about space launch
China boosts broadband, IoT and weather satellite fleets with flurry of launches

A flurry of launch activity has seen China add to an Internet of Things constellation, loft new broadband satellites and boost its weather satellite fleet. The post China boosts broadband, IoT and weather satellite fleets with flurry of launches appeared...

News about space launch
Launch Roundup: Kuiper, Starlink, IMAP headline launch manifest

A busy slate of launches is planned for the last full week of September, including… The post Launch Roundup: Kuiper, Starlink, IMAP headline launch manifest appeared first on NASASpaceFlight.com.


Newsletter sign-up

Weekly statistics, charts and insights to help you stay on top of the space industry.